Starlink 30372

operational
NORAD ID: 57789 Int'l Des: 2023-134 Owner: SPXS Country: US Constellation: starlink
LEOCIRCULAR

Starlink 30372について

説明を読み込み中...

リアルタイム位置

3D地球を読み込み中...

次回通過

高度履歴

Altitude vs Time

uPlot chart will show altitude changes over time

軌道要素

1 57789U 23134U 25308.70541536 .00002786 00000-0 11070-3 0 9993
2 57789 43.0021 64.2229 0000338 322.6020 37.4808 15.27584052121757
Epoch: Nov 4, 2025 • Age: 13 hours

現在のステータス

高度 485.8 km
速度 7.63 km/s
衛星直下点 40.61°N, 41°E
打ち上げ日 Sep 4, 2023
運用期間 2.1 years
タイプ internet

技術仕様

分類 Payload
質量 730.00 kg
乾燥質量 700.00 kg
総質量 730.00 kg
長さ 0.30 m
直径 4.10 m
スパン 29.00 m
形状 Box + pan
製造者 SPXS
バスタイプ Starlink V2M
フェーズステータス In Orbit
所有者/国 SPXS/US

大規模コンステレーション

Loading constellations...